Location: Arbon
(43.0005°N, 0.7472°E)
Time: 18:34:00
(UTC+00:00)

Cosmos 1766 - Pass Details

Date: 07 August 2020
Orbit: 522 x 543 km, 82.5° (Epoch: 23 September)

Event Time Altitude Azimuth Distance (km) Brightness Sun altitude
Exits shadow 02:26:10 46° 304° (NW) 724 3.8 -22.2°
Drops below altitude 10° 02:29:32 10° 357° (N) 1,782 6.6 -21.8°
Sets 02:31:45 0° 3° (N) 2,673 7.7 -21.5°
